Weather History for Herat, Afghanistan

Change the Weather History Date:

Tuesday, February 12, 2013

  Actual Average Record
Temperature  
Mean Temperature 48 °F -  
Max Temperature 60 °F 57 °F - ()
Min Temperature 35 °F 34 °F - ()
Degree Days  
Heating Degree Days 18    
Moisture  
Dew Point 34 °F    
Average Humidity 59    
Maximum Humidity 87    
Minimum Humidity 31    
Precipitation  
Precipitation 0.00 in 0.06 in - ()
Sea Level Pressure  
Sea Level Pressure 30.07 in    
Wind  
Wind Speed 1 mph ()    
Max Wind Speed 4 mph    
Max Gust Speed -    
Visibility 4.5 miles    
Events      
T = Trace of Precipitation, MM = Missing Value Source: Averaged Metar Reports

Daily Weather History Graph

Daily Weather History Graph

Search for Another Location

Airport:

Trip Planner

Search our weather history database for the weather conditions in past years. The results will help you decide how hot, cold, wet, or windy it might be!

Date:

Astronomy

Feb. 12, 2013 Rise Set
Actual Time 7:09 AM AFT 6:01 PM AFT
Civil Twilight 6:43 AM AFT 6:27 PM AFT
Nautical Twilight 6:13 AM AFT 6:57 PM AFT
Astronomical Twilight 5:44 AM AFT 7:26 PM AFT
Moon 8:00 AM AFT (2/12) 8:26 PM AFT (2/12)
Length of Visible Light 11h 44m
Length of Day
10h 52m
Waxing Crescent, 5% of the Moon is Illuminated
Feb 12
Waxing Crescent
Feb 18
First Quarter
Feb 26
Full
Mar 5
Last Quarter
Mar 12
New

Hourly Weather History & Observations

Time (AFT) Temp. Dew Point Humidity Pressure Visibility Wind Dir Wind Speed Gust Speed Precip Events Conditions
12:25 AM 41.0 °F 33.8 °F 76% 30.09 in - South 2.3 mph - N/A   Clear
1:24 AM 42.8 °F 33.8 °F 70% 30.09 in - SSW 1.2 mph - N/A   Clear
2:25 AM 41.0 °F 33.8 °F 76% 30.09 in - Calm Calm - N/A   Clear
4:24 AM 35.6 °F 30.2 °F 81% 30.06 in - Calm Calm - N/A   Clear
5:24 AM 37.4 °F 32.0 °F 81% 30.06 in 5.6 mi West 2.3 mph - N/A   Unknown
6:25 AM 35.6 °F 32.0 °F 87% 30.09 in 5.0 mi West 1.2 mph - N/A   Unknown
7:24 AM 35.6 °F 32.0 °F 87% 30.09 in 3.1 mi West 1.2 mph - N/A   Mist
8:25 AM 41.0 °F 33.8 °F 76% 30.09 in 3.1 mi Variable 1.2 mph - N/A   Partly Cloudy
9:25 AM 42.8 °F 33.8 °F 70% 30.12 in 3.7 mi Calm Calm - N/A   Partly Cloudy
10:25 AM 46.4 °F 33.8 °F 62% 30.12 in 3.7 mi North 2.3 mph - N/A   Scattered Clouds
11:25 AM 51.8 °F 35.6 °F 54% 30.12 in 4.3 mi West 3.5 mph - N/A   Partly Cloudy
12:25 PM 55.4 °F 35.6 °F 47% 30.09 in 4.3 mi Variable 2.3 mph - N/A   Scattered Clouds
1:25 PM 59.0 °F 30.2 °F 34% 30.06 in 4.3 mi North 3.5 mph - N/A   Scattered Clouds
2:25 PM 60.8 °F 30.2 °F 31% 30.04 in 5.0 mi Variable 3.5 mph - N/A   Scattered Clouds
3:25 PM 60.8 °F 32.0 °F 34% 30.04 in 5.0 mi North 2.3 mph - N/A   Partly Cloudy
4:25 PM 60.8 °F 33.8 °F 36% 30.01 in 5.0 mi NNW 1.2 mph - N/A   Partly Cloudy
5:25 PM 59.0 °F 35.6 °F 42% 30.01 in 5.0 mi Calm Calm - N/A   Scattered Clouds
6:25 PM 57.2 °F 35.6 °F 44% 30.04 in 5.0 mi Calm Calm - N/A   Scattered Clouds
7:25 PM 55.4 °F 37.4 °F 51% 30.04 in 4.3 mi Calm Calm - N/A   Mostly Cloudy
8:25 PM 53.6 °F 39.2 °F 58% 30.04 in 4.3 mi East 3.5 mph - N/A   Mostly Cloudy
9:25 PM 53.6 °F 35.6 °F 51% 30.04 in 4.3 mi East 3.5 mph - N/A   Mostly Cloudy
10:25 PM 53.6 °F 37.4 °F 54% 30.04 in 4.3 mi Variable 1.2 mph - N/A   Scattered Clouds
11:25 PM 51.8 °F 35.6 °F 54% 30.04 in 6.2 mi SW 1.2 mph - N/A   Unknown